User: anonymous   Login
Location: Oshawa
(43.9000°N, 78.8670°W)
Time: 08:59:28
(UTC-05:00)
Language:

Cosmos 1821 Rocket - Orbit

View from above orbital plane
View from above orbital plane
View from above satellite
View from above satellite

Ground track
Ground track

The orbit data is extracted from the following two-line orbital elements,

1 17526U 87017B   15028.20598977  .00000019  00000-0  42662-5 0  2007
2 17526 082.9064 331.0233 0039381 230.7019 240.9486 13.76725243386508
Epoch (UTC): 28 January 2015 04:56:37
Eccentricity: 0.0039381
inclination: 82.9064°
perigee height: 946 km
apogee height: 1004 km
right ascension of ascending node: 331.0233°
argument of perigee: 230.7019°
revolutions per day: 13.76725243
mean anomaly at epoch: 240.9486°
orbit number at epoch: 38650

The dashed part of the orbit path shows where the satellite is in the earth's shadow,  

DLR